STARLINK-34135 (63964 NORAD) Tracking and Keplerian Element Data

This shows tracking and keplerian element data for the satellite.

Feedback or suggestion? Click here.




ElementValue
Catalog63964
NameSTARLINK-34135
Epoch Orbit3502
Epoch Day353.17512563
Epoch Year2025
RAAN270.8397
Inclination43.003
Eccentricity9.28E-05
Argument of Perigee301.5276
Mean Anonmoly58.5484
Mean Motion15.27600836
Decay Rate0.00019105
L11 63964U 25099N 25353.17512563 .00019105 00000+0 70156-3 0 9998
L22 63964 43.0030 270.8397 0000928 301.5276 58.5484 15.27600836 35021



Live tracking and technical data element details for STARLINK-34135 (NORAD 63964). STARLINK-34135 can be tracked NOW for your location showing map with azimuth and elevation plus other details from your city location.







IsCatalogInMostPopularTable: catalog: 63964, numindb: 7
Update: records affected: 1



GetName: 63964 STARLINK-34135

Hit Count: updated at: Tue, 21 Apr 2026 20:21:00 GMT